Location: Hobi?a Gr?di?te
(45.4833°N, 22.7833°E)
Time: 04:16:23
(UTC+00:00)

Cosmos 1844 - Pass Details

Date: 28 January 2023
Orbit: 822 x 868 km, 70.9° (Epoch: 29 March)

Event Time Altitude Azimuth Distance (km) Brightness Sun altitude
Rises 17:37:36 0° 337° (NNW) 3,463 7.1 -22.5°
Reaches altitude 10° 17:40:13 10° 345° (NNW) 2,523 6.3 -22.9°
Enters shadow 17:44:58 40° 35° (NE) 1,255 4.3 -23.8°
